Weather History for Bettles, AK

Change the Weather History Date:

Thursday, April 18, 2013

  Actual Average Record
Temperature  
Mean Temperature 14 °F -  
Max Temperature 33 °F 34 °F 52 °F (1978)
Min Temperature -6 °F 12 °F -26 °F (1984)
Degree Days  
Heating Degree Days 52    
Moisture  
Dew Point -3 °F    
Average Humidity 45    
Maximum Humidity 83    
Minimum Humidity 12    
Precipitation  
Precipitation 0.00 in - - ()
Snow  
Snow 0.00 in - - ()
Snow Depth 23.00 in    
Sea Level Pressure  
Sea Level Pressure 30.55 in    
Wind  
Wind Speed 2 mph (ESE)    
Max Wind Speed 7 mph    
Max Gust Speed -    
Visibility 10 miles    
Events      
Averages and records for this station are not official NWS values.
T = Trace of Precipitation, MM = Missing Value Source: NWS Daily Summary

Daily Weather History Graph

Daily Weather History Graph

Search for Another Location

Airport:

Trip Planner

Search our weather history database for the weather conditions in past years. The results will help you decide how hot, cold, wet, or windy it might be!

Date:

Astronomy

Apr. 18, 2013 Rise Set
Actual Time 6:06 AM AKDT 10:06 PM AKDT
Civil Twilight 4:58 AM AKDT 11:15 PM AKDT
Nautical Twilight 2:29 AM AKDT 1:32 AM AKDT
Astronomical Twilight Sun does not rise Sun does not rise
Moon 12:01 PM AKDT (4/18) 4:59 AM AKDT (4/18)
Length of Visible Light 18h 17m
Length of Day
15h 59m
First Quarter, 53% of the Moon is Illuminated
Apr 18
First Quarter
Apr 25
Full
May 2
Last Quarter
May 9
New
May 17
First Quarter

Hourly Weather History & Observations

Time (AKDT) Temp. Windchill Dew Point Humidity Pressure Visibility Wind Dir Wind Speed Gust Speed Precip Events Conditions
12:53 AM 6.1 °F - -2.9 °F 67% 30.53 in 10.0 mi Calm Calm - N/A   Partly Cloudy
1:53 AM 3.0 °F -4.4 °F -4.0 °F 73% 30.54 in 10.0 mi NNW 3.5 mph - N/A   Partly Cloudy
2:53 AM 3.0 °F - -6.0 °F 66% 30.55 in 10.0 mi Calm Calm - N/A   Clear
3:53 AM -2.0 °F - -9.0 °F 72% 30.56 in 10.0 mi Calm Calm - N/A   Partly Cloudy
4:53 AM -2.9 °F -11.2 °F -9.0 °F 75% 30.56 in 10.0 mi North 3.5 mph - N/A   Partly Cloudy
5:53 AM -5.1 °F -13.6 °F -9.9 °F 80% 30.56 in 10.0 mi NE 3.5 mph - N/A   Partly Cloudy
6:53 AM -2.0 °F -10.1 °F -8.0 °F 76% 30.57 in 10.0 mi North 3.5 mph - N/A   Clear
7:53 AM 1.0 °F -8.7 °F -2.9 °F 83% 30.57 in 10.0 mi NNE 4.6 mph - N/A   Partly Cloudy
8:53 AM 9.0 °F - -2.9 °F 59% 30.58 in 10.0 mi Calm Calm - N/A   Partly Cloudy
9:53 AM 17.1 °F - -0.9 °F 45% 30.57 in 10.0 mi Calm Calm - N/A   Scattered Clouds
10:53 AM 24.1 °F - -2.0 °F 32% 30.57 in 10.0 mi Calm Calm - N/A   Scattered Clouds
11:53 AM 23.0 °F 18.4 °F -2.9 °F 32% 30.57 in 10.0 mi SSE 3.5 mph - N/A   Partly Cloudy
12:53 PM 26.1 °F 21.9 °F -4.0 °F 27% 30.56 in 10.0 mi Variable 3.5 mph - N/A   Partly Cloudy
1:53 PM 27.0 °F 21.6 °F -4.0 °F 26% 30.55 in 10.0 mi SSW 4.6 mph - N/A   Clear
2:53 PM 28.0 °F 22.8 °F -4.0 °F 25% 30.54 in 10.0 mi SSE 4.6 mph - N/A   Clear
3:53 PM 28.9 °F 21.9 °F -2.9 °F 25% 30.54 in 10.0 mi SSE 6.9 mph - N/A   Clear
4:53 PM 32.0 °F 28.7 °F -2.9 °F 22% 30.53 in 10.0 mi NNE 3.5 mph - N/A   Clear
5:53 PM 30.9 °F 27.5 °F -0.0 °F 27% 30.53 in 10.0 mi SE 3.5 mph - N/A   Clear
6:53 PM 30.9 °F - 1.0 °F 28% 30.52 in 10.0 mi Calm Calm - N/A   Clear
7:53 PM 28.9 °F 23.9 °F 1.0 °F 30% 30.52 in 10.0 mi SE 4.6 mph - N/A   Clear
8:53 PM 27.0 °F 23.0 °F -0.0 °F 31% 30.52 in 10.0 mi SSE 3.5 mph - N/A   Clear
9:53 PM 21.9 °F 17.2 °F -0.0 °F 38% 30.53 in 10.0 mi ESE 3.5 mph - N/A   Clear
10:53 PM 15.1 °F - -0.9 °F 49% 30.53 in 10.0 mi Calm Calm - N/A   Clear
11:53 PM 7.0 °F - -4.0 °F 61% 30.55 in 10.0 mi Calm Calm - N/A   Clear